Weather History for Tarboro, NC

Change the Weather History Date:

Sunday, April 28, 2013

  Actual Average Record
Temperature  
Mean Temperature 58 °F -  
Max Temperature 87 °F 76 °F 96 °F (1990)
Min Temperature 48 °F 48 °F 35 °F (1976)
Degree Days  
Heating Degree Days 7    
Growing Degree Days 8 (Base 50)    
Moisture  
Dew Point 48 °F    
Average Humidity 69    
Maximum Humidity 91    
Minimum Humidity 38    
Precipitation  
Precipitation 0.08 in - - ()
Sea Level Pressure  
Sea Level Pressure 30.22 in    
Wind  
Wind Speed 2 mph (East)    
Max Wind Speed 7 mph    
Max Gust Speed -    
Visibility 10 miles    
Events Rain    
Averages and records for this station are not official NWS values.
T = Trace of Precipitation, MM = Missing Value Source: NWS Daily Summary

Daily Weather History Graph

Daily Weather History Graph

Search for Another Location

Airport:

Trip Planner

Search our weather history database for the weather conditions in past years. The results will help you decide how hot, cold, wet, or windy it might be!

Date:

Astronomy

Apr. 28, 2013 Rise Set
Actual Time 6:20 AM EDT 7:54 PM EDT
Civil Twilight 5:53 AM EDT 8:22 PM EDT
Nautical Twilight 5:20 AM EDT 8:55 PM EDT
Astronomical Twilight 4:46 AM EDT 9:29 PM EDT
Moon 11:19 PM EDT (4/28) 8:38 AM EDT (4/28)
Length of Visible Light 14h 28m
Length of Day
13h 34m
Waning Gibbous, 89% of the Moon is Illuminated
Apr 28
Waning Gibbous
May 2
Last Quarter
May 9
New
May 18
First Quarter
May 25
Full

Hourly Weather History & Observations

Time (EDT) Temp. Dew Point Humidity Pressure Visibility Wind Dir Wind Speed Gust Speed Precip Events Conditions
12:15 AM 55.6 °F 44.1 °F 65% 30.31 in 10.0 mi Calm Calm - N/A   Clear
12:35 AM 55.4 °F 43.9 °F 65% 30.31 in 10.0 mi SE 3.5 mph - N/A   Clear
12:55 AM 54.7 °F 43.7 °F 66% 30.30 in 10.0 mi East 3.5 mph - N/A   Clear
1:15 AM 53.1 °F 44.4 °F 72% 30.31 in 10.0 mi Calm Calm - N/A   Clear
1:35 AM 51.1 °F 45.5 °F 81% 30.29 in 10.0 mi Calm Calm - N/A   Clear
1:55 AM 51.8 °F 46.0 °F 81% 30.30 in 10.0 mi Calm Calm - N/A   Clear
2:15 AM 51.4 °F 46.4 °F 83% 30.29 in 10.0 mi Calm Calm - N/A   Clear
2:35 AM 51.6 °F 47.5 °F 86% 30.28 in 10.0 mi Calm Calm - N/A   Clear
2:55 AM 52.0 °F 48.2 °F 87% 30.28 in 10.0 mi Calm Calm - N/A   Clear
3:15 AM 52.5 °F 48.4 °F 86% 30.27 in 10.0 mi Calm Calm - N/A   Clear
3:35 AM 52.2 °F 48.9 °F 89% 30.27 in 10.0 mi Calm Calm - N/A   Clear
3:55 AM 52.0 °F 48.2 °F 87% 30.27 in 10.0 mi Calm Calm - N/A   Clear
4:35 AM 52.0 °F 47.1 °F 83% 30.25 in 10.0 mi Calm Calm - N/A   Clear
4:55 AM 52.0 °F 46.4 °F 81% 30.25 in 10.0 mi Calm Calm - N/A   Clear
5:15 AM 51.1 °F 46.2 °F 83% 30.25 in 10.0 mi Calm Calm - N/A   Clear
5:35 AM 50.5 °F 46.0 °F 85% 30.25 in 10.0 mi Calm Calm - N/A   Scattered Clouds
5:55 AM 50.4 °F 45.9 °F 85% 30.26 in 10.0 mi Calm Calm - N/A   Mostly Cloudy
6:15 AM 49.5 °F 46.4 °F 89% 30.26 in 7.0 mi Calm Calm - N/A   Mostly Cloudy
6:35 AM 49.1 °F 46.6 °F 91% 30.26 in 10.0 mi East 3.5 mph - N/A   Scattered Clouds
6:55 AM 48.7 °F 45.9 °F 90% 30.26 in 10.0 mi Calm Calm - N/A   Scattered Clouds
7:15 AM 49.6 °F 45.3 °F 85% 30.27 in 10.0 mi Calm Calm - N/A   Mostly Cloudy
7:35 AM 51.3 °F 46.4 °F 83% 30.28 in 10.0 mi Calm Calm - N/A   Scattered Clouds
7:55 AM 53.4 °F 46.8 °F 78% 30.28 in 10.0 mi Calm Calm - N/A   Clear
8:15 AM 54.7 °F 46.9 °F 75% 30.28 in 10.0 mi ESE 3.5 mph - N/A   Clear
8:35 AM 56.5 °F 46.9 °F 70% 30.27 in 10.0 mi East 4.6 mph - N/A   Clear
8:55 AM 57.9 °F 46.8 °F 66% 30.28 in 10.0 mi Calm Calm - N/A   Clear
9:15 AM 58.8 °F 46.9 °F 65% 30.27 in 10.0 mi ESE 3.5 mph - N/A   Clear
9:35 AM 59.9 °F 47.5 °F 64% 30.27 in 10.0 mi Calm Calm - N/A   Clear
9:55 AM 61.9 °F 46.9 °F 58% 30.27 in 10.0 mi SE 6.9 mph - N/A   Clear
10:15 AM 64.0 °F 45.3 °F 51% 30.27 in 10.0 mi ESE 5.8 mph - N/A   Clear
10:35 AM 64.4 °F 43.5 °F 47% 30.27 in 10.0 mi SE 5.8 mph - N/A   Clear
10:55 AM 64.8 °F 43.0 °F 45% 30.27 in 10.0 mi SSE 5.8 mph - N/A   Clear
11:35 AM 66.0 °F 43.5 °F 44% 30.27 in 10.0 mi SSE 4.6 mph - N/A   Mostly Cloudy
11:55 AM 66.9 °F 42.4 °F 41% 30.26 in 10.0 mi SE 5.8 mph - N/A   Overcast
12:15 PM 67.6 °F 42.3 °F 40% 30.25 in 10.0 mi ESE 4.6 mph - N/A   Overcast
12:35 PM 67.6 °F 41.9 °F 39% 30.25 in 10.0 mi East 4.6 mph - N/A   Overcast
12:55 PM 67.5 °F 41.4 °F 39% 30.24 in 10.0 mi East 5.8 mph - N/A   Overcast
1:15 PM 67.3 °F 40.8 °F 38% 30.24 in 10.0 mi ESE 3.5 mph - N/A   Overcast
1:35 PM 68.5 °F 41.7 °F 38% 30.24 in 10.0 mi ENE 6.9 mph - N/A   Overcast
1:55 PM 68.4 °F 42.6 °F 39% 30.24 in 10.0 mi East 3.5 mph - N/A   Overcast
2:15 PM 68.0 °F 42.8 °F 40% 30.23 in 10.0 mi East 4.6 mph - N/A   Mostly Cloudy
2:35 PM 67.8 °F 43.5 °F 41% 30.23 in 10.0 mi ENE 5.8 mph - N/A   Overcast
2:55 PM 67.3 °F 44.1 °F 43% 30.21 in 10.0 mi East 6.9 mph - N/A   Overcast
3:15 PM 66.2 °F 45.1 °F 47% 30.20 in 10.0 mi ENE 4.6 mph - N/A Rain Light Rain
3:35 PM 66.6 °F 46.8 °F 49% 30.19 in 10.0 mi NE 5.8 mph - N/A   Scattered Clouds
3:55 PM 66.4 °F 45.3 °F 47% 30.18 in 10.0 mi ENE 6.9 mph - N/A   Scattered Clouds
4:15 PM 66.0 °F 44.6 °F 46% 30.18 in 10.0 mi ENE 3.5 mph - N/A   Mostly Cloudy
4:35 PM 65.8 °F 45.1 °F 47% 30.17 in 10.0 mi ENE 5.8 mph - N/A   Overcast
4:55 PM 66.0 °F 46.6 °F 49% 30.16 in 10.0 mi ENE 5.8 mph - N/A Rain Light Rain
5:15 PM 65.7 °F 46.4 °F 50% 30.16 in 10.0 mi ENE 4.6 mph - N/A   Overcast
5:35 PM 65.1 °F 47.1 °F 52% 30.16 in 10.0 mi NE 3.5 mph - N/A   Overcast
5:55 PM 64.4 °F 47.7 °F 55% 30.17 in 10.0 mi Calm Calm - N/A Rain Light Rain
6:15 PM 63.5 °F 50.5 °F 63% 30.16 in 10.0 mi Calm Calm - N/A   Light Drizzle
6:35 PM 61.7 °F 52.9 °F 73% 30.15 in 10.0 mi ENE 4.6 mph - N/A Rain Light Rain
6:55 PM 61.0 °F 51.4 °F 71% 30.14 in 10.0 mi ENE 4.6 mph - N/A   Light Drizzle
7:15 PM 60.6 °F 52.0 °F 73% 30.14 in 10.0 mi Calm Calm - N/A   Light Drizzle
7:35 PM 59.9 °F 52.5 °F 77% 30.14 in 10.0 mi Calm Calm - N/A Rain Light Rain
7:55 PM 59.0 °F 54.7 °F 86% 30.15 in 10.0 mi Calm Calm - N/A Rain Light Rain
8:15 PM 58.1 °F 54.9 °F 89% 30.15 in 10.0 mi East 3.5 mph - N/A   Drizzle
8:35 PM 58.6 °F 54.3 °F 86% 30.15 in 10.0 mi East 5.8 mph - 0.01 in Rain Rain
8:55 PM 58.5 °F 54.5 °F 87% 30.15 in 10.0 mi East 3.5 mph - 0.03 in Rain Light Rain
9:15 PM 58.3 °F 54.9 °F 88% 30.15 in 10.0 mi East 3.5 mph - N/A Rain Rain
9:35 PM 58.1 °F 55.0 °F 90% 30.15 in 10.0 mi East 4.6 mph - 0.02 in Rain Light Rain
9:55 PM 58.1 °F 55.0 °F 90% 30.14 in 10.0 mi East 5.8 mph - 0.03 in Rain Light Rain
10:15 PM 58.1 °F 55.0 °F 90% 30.13 in 10.0 mi East 4.6 mph - N/A Rain Light Rain
10:35 PM 57.9 °F 54.9 °F 90% 30.13 in 10.0 mi East 4.6 mph - 0.01 in   Overcast
10:55 PM 58.1 °F 54.5 °F 88% 30.13 in 10.0 mi East 3.5 mph - 0.01 in Rain Light Rain
11:15 PM 58.1 °F 54.7 °F 88% 30.13 in 10.0 mi East 3.5 mph - 0.01 in Rain Light Rain
11:35 PM 58.1 °F 55.0 °F 90% 30.12 in 10.0 mi Calm Calm - 0.01 in   Drizzle
11:55 PM 58.1 °F 55.4 °F 91% 30.12 in 10.0 mi Calm Calm - 0.01 in   Overcast